"Pseudo-MPEC" for Sar2906

Created 2026 Sep 5 10:35:16 UT using Find_Orb

Click here for an explanation of pseudo-MPECs

 
 Astrometry: 
     Sar2906*1C2026 09 05.03228623 58 49.00 +23 01 42.6    ~951o 20.1 GVNEOCPK88
     Sar2906 1C2026 09 05.03449623 58 51.69 +23 01 42.9    ~951o 20.2 GVNEOCPK88
     Sar2906 1C2026 09 05.03670323 58 54.36 +23 01 43.5    ~951o 20.3 GVNEOCPK88
     Sar2906 1C2026 09 05.05999023 59 22.44 +23 01 49.7    ~9525 20.1 GVNEOCPK88
     Sar2906 1C2026 09 05.06273523 59 25.74 +23 01 50.7    ~9525 20.4 GVNEOCPK88
     Sar2906 1C2026 09 05.06492723 59 28.40 +23 01 51.4    ~9525 20.2 GVNEOCPK88
     Sar2906 1C2026 09 05.08812523 59 56.06 +23 01 51.7    ~958Z 19.9 GVNEOCPK88
     Sar2906 1C2026 09 05.09086623 59 59.37 +23 01 52.1    ~958Z 20.3 GVNEOCPK88
     Sar2906 1C2026 09 05.09223700 00 00.95 +23 01 51.9    ~958Z 20.1 GVNEOCPK88

Station data:
(K88) GINOP-KHK, Piszkéstető  (N47.917453 E19.893670)  Hungary.  Observer K.
   Sárneczky. 0.60-m Schmidt + CCD.

Orbital elements:  Sar2906
   Perihelion 2026 Aug 9.378712 +/- 0.701 TT =  9:05:20.7 (JD 2461261.878712)
Epoch 2026 Sep  5.0 TT = JDT 2461288.5   Earth MOID: 0.0006   Ma: 0.0978
M   9.949422330 +/- 1.6             (J2000 ecliptic)             AutoNEOCP
n   0.373739330 +/- 0.0553          Peri.  330.683848 +/- 1.3
a   1.908784269 +/- 0.188           Node   339.051561 +/- 0.43
e   0.49458380 +/- 0.0517           Incl.    4.071640 +/- 0.35
P   2.637/963.220d         H 28.65  G  0.15   U 10.8
q 0.964730476 +/- 0.00512    Q 2.852838062 +/- 0.38
From 9 observations 2026 Sept. 5 (86.3 min); mean residual 0".28
Residuals in arcseconds: 
260905 K88  .01+  .43+    260905 K88  .21-  .43-    260905 K88  .21-  .35-    
260905 K88  .06+  .14-    260905 K88  .11-  .12+    260905 K88  .44+  .17+    
260905 K88  .06-  .37-    260905 K88  .34+  .51+    260905 K88  .27-  .05+    

Ephemerides (geocentric):
Date (UTC) HH   RA             Dec           delta  r     elong  mag " sig PA
---- --------  ------------   ------------  ------ ------ -----  --- --------
2026 09 05 11  00 07 31.353   +23 09 35.09  .01391 1.0197 145.2 20.8 84.9  54
2026 09 05 12  00 08 12.819   +23 09 42.29  .01413 1.0199 145.2 20.9 83.3  52
2026 09 05 13  00 08 53.024   +23 09 48.48  .01435 1.0200 145.1 20.9 81.1  50
2026 09 05 14  00 09 32.022   +23 09 53.74  .01457 1.0202 145.1 20.9 78.3  48
2026 09 05 15  00 10 09.866   +23 09 58.14  .01478 1.0204 145.0 21.0 75.2  45
2026 09 05 16  00 10 46.606   +23 10 01.74  .01500 1.0205 145.0 21.0 71.8  41
2026 09 05 17  00 11 22.288   +23 10 04.59  .01522 1.0207 144.9 21.0 68.3  37
2026 09 05 18  00 11 56.956   +23 10 06.74  .01543 1.0208 144.9 21.1 65.0  32
2026 09 05 19  00 12 30.651   +23 10 08.24  .01565 1.0210 144.8 21.1 62.0  25
2026 09 05 20  00 13 03.415   +23 10 09.14  .01587 1.0212 144.8 21.1 59.7  18
2026 09 05 21  00 13 35.283   +23 10 09.48  .01609 1.0213 144.8 21.2 58.3  10
2026 09 05 22  00 14 06.291   +23 10 09.28  .01631 1.0215 144.7 21.2 58.0   2
2026 09 05 23  00 14 36.473   +23 10 08.60  .01652 1.0217 144.7 21.2 59.1 173
2026 09 06 00  00 15 05.860   +23 10 07.45  .01674 1.0218 144.7 21.3 61.6 164
2026 09 06 01  00 15 34.484   +23 10 05.87  .01696 1.0220 144.6 21.3 65.4 156
2026 09 06 02  00 16 02.372   +23 10 03.89  .01718 1.0222 144.6 21.3 70.5 149
2026 09 06 03  00 16 29.552   +23 10 01.53  .01740 1.0223 144.6 21.3 76.6 143
2026 09 06 04  00 16 56.050   +23 09 58.82  .01761 1.0225 144.6 21.4 83.6 138
2026 09 06 05  00 17 21.890   +23 09 55.77  .01783 1.0226 144.5 21.4 91.4 133
2026 09 06 06  00 17 47.097   +23 09 52.41  .01805 1.0228 144.5 21.4  100 129
2026 09 06 07  00 18 11.693   +23 09 48.76  .01827 1.0230 144.5 21.4  109 126
2026 09 06 08  00 18 35.699   +23 09 44.84  .01849 1.0231 144.5 21.5  118 123
2026 09 06 09  00 18 59.135   +23 09 40.66  .01871 1.0233 144.5 21.5  127 121
2026 09 06 10  00 19 22.021   +23 09 36.23  .01893 1.0235 144.4 21.5  137 119
2026 09 06 11  00 19 44.376   +23 09 31.58  .01914 1.0236 144.4 21.6  147 117
2026 09 06 12  00 20 06.218   +23 09 26.71  .01936 1.0238 144.4 21.6  158 115
2026 09 06 13  00 20 27.563   +23 09 21.63  .01958 1.0240 144.4 21.6  168 114
2026 09 06 14  00 20 48.428   +23 09 16.37  .01980 1.0241 144.4 21.6  179 113
2026 09 06 15  00 21 08.828   +23 09 10.93  .02002 1.0243 144.4 21.7  189 111
2026 09 06 16  00 21 28.778   +23 09 05.31  .02024 1.0245 144.4 21.7  200 110
2026 09 06 17  00 21 48.293   +23 08 59.54  .02046 1.0246 144.4 21.7  211 110
2026 09 06 18  00 22 07.386   +23 08 53.61  .02068 1.0248 144.3 21.7  221 109
2026 09 06 19  00 22 26.071   +23 08 47.54  .02090 1.0250 144.3 21.7  232 108
2026 09 06 20  00 22 44.359   +23 08 41.33  .02111 1.0251 144.3 21.8  243 107
2026 09 06 21  00 23 02.263   +23 08 35.00  .02133 1.0253 144.3 21.8  254 107
2026 09 06 22  00 23 19.795   +23 08 28.54  .02155 1.0255 144.3 21.8  265 106
2026 09 06 23  00 23 36.965   +23 08 21.97  .02177 1.0256 144.3 21.8  276 106
2026 09 07 00  00 23 53.785   +23 08 15.29  .02199 1.0258 144.3 21.9  287 105
2026 09 07 01  00 24 10.264   +23 08 08.51  .02221 1.0260 144.3 21.9  297 105
2026 09 07 02  00 24 26.412   +23 08 01.63  .02243 1.0262 144.3 21.9  308 104
2026 09 07 03  00 24 42.239   +23 07 54.65  .02265 1.0263 144.3 21.9  319 104
2026 09 07 04  00 24 57.755   +23 07 47.59  .02287 1.0265 144.3 21.9  330 104
2026 09 07 05  00 25 12.967   +23 07 40.44  .02309 1.0267 144.3 22.0  340 103
2026 09 07 06  00 25 27.885   +23 07 33.21  .02331 1.0268 144.3 22.0  351 103
2026 09 07 07  00 25 42.516   +23 07 25.91  .02353 1.0270 144.3 22.0  361 103
2026 09 07 08  00 25 56.868   +23 07 18.53  .02375 1.0272 144.3 22.0  372 103
2026 09 07 09  00 26 10.949   +23 07 11.09  .02396 1.0273 144.3 22.0  382 102
2026 09 07 10  00 26 24.766   +23 07 03.57  .02418 1.0275 144.3 22.1  393 102